Fremont, MI

2:48 AM EST on November 17, 2019 (GMT -0500)
Fremont

Weather History for KFFX - July, 2019

Change the Weather History Date:

Saturday, July 27, 2019

  Actual Average (WUND) Record (WUND)
Temperature  
Mean Temperature 77 °F -  
Max Temperature 84 °F - - (-1)
Min Temperature 70 °F - - (-1)
Cooling Degree Days 12    
Growing Degree Days 27 (Base 50)    
Moisture  
Dew Point 62 °F    
Average Humidity 61    
Maximum Humidity 94    
Minimum Humidity 45    
Precipitation  
Precipitation 0.00 in - - ()
Sea Level Pressure  
Sea Level Pressure 30.05 in    
Wind  
Wind Speed 11 mph (SW)    
Max Wind Speed 21 mph    
Max Gust Speed 29 mph    
Visibility 10 miles    
Events Rain    
Averages and records for this station are not official NWS values.
T = Trace of Precipitation, MM = Missing Value Source: NWS Daily Summary

Daily Weather History Graph

Daily Weather History Graph

Search for Another Location

Airport or City:

Astronomy

Jul. 27, 2019 Rise Set
Actual Time 6:28 AM EDT 9:12 PM EDT
Civil Twilight 5:55 AM EDT 9:45 PM EDT
Nautical Twilight 5:13 AM EDT 10:26 PM EDT
Astronomical Twilight 4:24 AM EDT 11:14 PM EDT
Moon 2:15 AM EDT (7/27) 5:02 PM EDT (7/27)
Length of Visible Light 15h 50m
Length of Day
14h 43m
Waning Crescent, 24% of the Moon is Illuminated
Jul 27
Waning Crescent
Jul 31
New
Aug 7
First Quarter
Aug 15
Full
Aug 23
Last Quarter

Hourly Weather History & Observations

Time (EDT) Temp. Heat Index Dew Point Humidity Pressure Visibility Wind Dir Wind Speed Gust Speed Precip Events Conditions
12:15 AM 72.5 °F - 58.5 °F 61% 30.12 in 10.0 mi South 5.8 mph - N/A   Scattered Clouds
12:38 AM 71.2 °F - 59.4 °F 66% 30.12 in 10.0 mi SSW 5.8 mph - N/A   Scattered Clouds
12:56 AM 70.9 °F - 59.2 °F 66% 30.12 in 10.0 mi SSW 6.9 mph - N/A   Mostly Cloudy
1:15 AM 71.1 °F - 58.6 °F 65% 30.12 in 10.0 mi South 6.9 mph - N/A   Mostly Cloudy
1:16 AM 71.1 °F - 58.6 °F 65% 30.12 in 10.0 mi South 5.8 mph - N/A   Mostly Cloudy
1:35 AM 71.6 °F - 58.3 °F 63% 30.12 in 10.0 mi South 6.9 mph - N/A   Mostly Cloudy
1:59 AM 71.4 °F - 58.1 °F 63% 30.11 in 10.0 mi South 6.9 mph - N/A   Mostly Cloudy
2:17 AM 70.9 °F - 58.1 °F 64% 30.11 in 10.0 mi SSW 5.8 mph - N/A   Mostly Cloudy
2:35 AM 70.7 °F - 58.1 °F 64% 30.11 in 10.0 mi South 5.8 mph - N/A   Scattered Clouds
2:36 AM 70.7 °F - 58.1 °F 64% 30.11 in 10.0 mi South 6.9 mph - N/A   Mostly Cloudy
2:55 AM 70.7 °F - 58.1 °F 64% 30.10 in 10.0 mi South 4.6 mph - N/A   Scattered Clouds
3:15 AM 70.7 °F - 58.5 °F 65% 30.10 in 10.0 mi South 4.6 mph - N/A   Scattered Clouds
3:38 AM 71.6 °F - 59.7 °F 66% 30.09 in 10.0 mi SSW 8.1 mph - N/A   Mostly Cloudy
3:56 AM 72.7 °F - 60.4 °F 65% 30.09 in 10.0 mi SSW 11.5 mph 19.6 mph N/A   Overcast
4:15 AM 72.3 °F - 61.0 °F 67% 30.08 in 10.0 mi SSW 9.2 mph - N/A   Mostly Cloudy
4:16 AM 72.3 °F - 61.0 °F 67% 30.08 in 10.0 mi SSW 10.4 mph - N/A   Mostly Cloudy
4:35 AM 72.1 °F - 61.3 °F 69% 30.08 in 10.0 mi SSW 10.4 mph - N/A   Mostly Cloudy
4:36 AM 72.1 °F - 61.3 °F 69% 30.08 in 10.0 mi SSW 10.4 mph - N/A   Mostly Cloudy
4:58 AM 72.5 °F - 61.9 °F 69% 30.08 in 10.0 mi SSW 9.2 mph - N/A   Overcast
5:17 AM 73.0 °F - 62.1 °F 68% 30.08 in 10.0 mi SSW 12.7 mph 20.7 mph N/A   Overcast
5:35 AM 73.6 °F - 62.1 °F 67% 30.08 in 10.0 mi SW 13.8 mph 20.7 mph N/A   Overcast
5:55 AM 73.9 °F - 61.9 °F 66% 30.08 in 10.0 mi SSW 15.0 mph - N/A   Overcast
5:56 AM 73.9 °F - 61.9 °F 66% 30.08 in 10.0 mi SSW 16.1 mph - N/A   Overcast
6:15 AM 73.9 °F - 61.9 °F 66% 30.08 in 10.0 mi SW 15.0 mph 23.0 mph N/A   Overcast
6:38 AM 73.8 °F - 61.7 °F 66% 30.07 in 10.0 mi SSW 16.1 mph 21.9 mph N/A   Overcast
6:56 AM 74.1 °F - 61.3 °F 64% 30.07 in 10.0 mi SW 18.4 mph 28.8 mph N/A   Overcast
7:15 AM 74.3 °F - 61.2 °F 63% 30.07 in 10.0 mi SSW 16.1 mph 24.2 mph N/A   Overcast
7:35 AM 74.1 °F - 61.2 °F 64% 30.07 in 10.0 mi SW 13.8 mph 23.0 mph N/A   Overcast
7:59 AM 73.6 °F - 61.3 °F 65% 30.08 in 10.0 mi SW 10.4 mph - N/A   Overcast
8:17 AM 74.3 °F - 61.0 °F 63% 30.08 in 10.0 mi SSW 12.7 mph 20.7 mph N/A   Overcast
8:35 AM 74.7 °F - 61.2 °F 63% 30.08 in 10.0 mi SSW 17.3 mph 26.5 mph N/A   Overcast
8:55 AM 75.2 °F - 61.2 °F 62% 30.08 in 10.0 mi SW 16.1 mph 23.0 mph N/A   Overcast
9:15 AM 74.5 °F - 61.3 °F 63% 30.08 in 10.0 mi SW 16.1 mph 20.7 mph N/A   Overcast
9:38 AM 75.6 °F - 61.5 °F 62% 30.07 in 10.0 mi SW 16.1 mph 23.0 mph N/A   Overcast
9:56 AM 75.6 °F - 61.9 °F 62% 30.07 in 10.0 mi SW 15.0 mph - N/A   Overcast
10:15 AM 76.1 °F - 61.9 °F 61% 30.06 in 10.0 mi SW 12.7 mph 23.0 mph N/A   Overcast
10:16 AM 76.1 °F - 62.1 °F 62% 30.06 in 10.0 mi SW 10.4 mph 23.0 mph N/A   Overcast
10:35 AM 77.0 °F - 61.9 °F 59% 30.07 in 10.0 mi SW 15.0 mph 19.6 mph N/A   Overcast
10:59 AM 77.4 °F - 62.1 °F 59% 30.07 in 10.0 mi SW 10.4 mph 27.6 mph N/A   Mostly Cloudy
11:16 AM 79.5 °F - 62.1 °F 55% 30.07 in 10.0 mi SW 20.7 mph 25.3 mph N/A   Mostly Cloudy
11:35 AM 79.9 °F - 61.5 °F 53% 30.06 in 10.0 mi SW 16.1 mph 28.8 mph N/A   Scattered Clouds
11:36 AM 79.9 °F - 61.5 °F 53% 30.06 in 10.0 mi SW 16.1 mph 28.8 mph N/A   Scattered Clouds
11:55 AM 79.0 °F - 61.2 °F 54% 30.06 in 10.0 mi SW 13.8 mph 25.3 mph N/A   Mostly Cloudy
11:56 AM 79.0 °F - 61.3 °F 55% 30.06 in 10.0 mi SW 15.0 mph 25.3 mph N/A   Mostly Cloudy
12:15 PM 78.8 °F - 61.7 °F 56% 30.06 in 10.0 mi SW 19.6 mph 24.2 mph N/A   Overcast
12:20 PM 78.6 °F - 61.5 °F 56% 30.06 in 10.0 mi SW 15.0 mph 24.2 mph N/A   Mostly Cloudy
12:37 PM 80.1 °F 81.1 °F 61.5 °F 53% 30.06 in 10.0 mi SSW 17.3 mph 24.2 mph N/A   Mostly Cloudy
12:56 PM 79.5 °F - 61.7 °F 54% 30.06 in 10.0 mi SW 18.4 mph 24.2 mph N/A   Overcast
1:15 PM 78.6 °F - 61.9 °F 56% 30.05 in 10.0 mi SW 16.1 mph 19.6 mph N/A   Overcast
1:35 PM 80.1 °F 81.1 °F 61.3 °F 53% 30.05 in 10.0 mi SW 16.1 mph 23.0 mph N/A   Mostly Cloudy
1:36 PM 79.9 °F - 61.3 °F 53% 30.05 in 10.0 mi SW 17.3 mph 23.0 mph N/A   Mostly Cloudy
1:59 PM 80.2 °F 81.3 °F 61.9 °F 53% 30.05 in 10.0 mi SW 13.8 mph 18.4 mph N/A   Overcast
2:17 PM 80.4 °F 81.4 °F 61.3 °F 52% 30.04 in 10.0 mi SW 19.6 mph 25.3 mph N/A   Overcast
2:35 PM 81.3 °F 82.2 °F 61.5 °F 51% 30.04 in 10.0 mi SW 15.0 mph 21.9 mph N/A   Overcast
2:55 PM 82.0 °F 82.5 °F 60.8 °F 48% 30.04 in 10.0 mi SW 17.3 mph 28.8 mph N/A   Mostly Cloudy
2:56 PM 82.0 °F 82.7 °F 61.0 °F 49% 30.04 in 10.0 mi WSW 18.4 mph 28.8 mph N/A   Mostly Cloudy
3:15 PM 82.9 °F 83.3 °F 60.8 °F 47% 30.04 in 10.0 mi SW 16.1 mph 26.5 mph N/A   Mostly Cloudy
3:20 PM 83.3 °F 83.5 °F 60.8 °F 46% 30.04 in 10.0 mi SW 19.6 mph 25.3 mph N/A   Mostly Cloudy
3:38 PM 83.7 °F 83.9 °F 60.8 °F 46% 30.03 in 10.0 mi SW 20.7 mph 25.3 mph N/A   Scattered Clouds
3:56 PM 82.2 °F 82.6 °F 60.3 °F 47% 30.03 in 10.0 mi SW 16.1 mph 27.6 mph N/A   Mostly Cloudy
4:15 PM 84.7 °F 85.0 °F 61.3 °F 45% 30.03 in 10.0 mi SW 20.7 mph 28.8 mph N/A   Overcast
4:35 PM 84.4 °F 84.6 °F 60.6 °F 45% 30.02 in 10.0 mi SSW 17.3 mph 28.8 mph N/A   Scattered Clouds
4:36 PM 84.4 °F 84.6 °F 60.6 °F 45% 30.02 in 10.0 mi SW 19.6 mph 28.8 mph N/A   Scattered Clouds
4:59 PM 83.3 °F 83.5 °F 60.6 °F 46% 30.02 in 10.0 mi SW 17.3 mph 27.6 mph N/A   Mostly Cloudy
5:17 PM 83.1 °F 83.3 °F 60.3 °F 46% 30.02 in 10.0 mi SW 20.7 mph 28.8 mph N/A   Mostly Cloudy
5:35 PM 82.4 °F 82.9 °F 61.0 °F 48% 30.02 in 10.0 mi SSW 16.1 mph 21.9 mph N/A   Overcast
5:36 PM 82.6 °F 83.1 °F 61.2 °F 48% 30.02 in 10.0 mi SW 13.8 mph 21.9 mph N/A   Mostly Cloudy
5:55 PM 81.7 °F 82.4 °F 61.2 °F 50% 30.02 in 10.0 mi SSW 16.1 mph 21.9 mph N/A   Mostly Cloudy
5:56 PM 81.7 °F 82.4 °F 61.2 °F 50% 30.02 in 10.0 mi SW 17.3 mph 21.9 mph N/A   Mostly Cloudy
6:15 PM 81.9 °F 82.5 °F 60.8 °F 49% 30.01 in 10.0 mi SW 16.1 mph 24.2 mph N/A   Mostly Cloudy
6:20 PM 81.7 °F 82.3 °F 61.0 °F 49% 30.01 in 10.0 mi SW 19.6 mph 26.5 mph N/A   Mostly Cloudy
6:38 PM 81.5 °F 82.2 °F 61.3 °F 50% 30.01 in 10.0 mi SW 15.0 mph 24.2 mph N/A   Mostly Cloudy
6:56 PM 80.6 °F 81.6 °F 61.7 °F 52% 30.01 in 10.0 mi SSW 10.4 mph 18.4 mph N/A   Mostly Cloudy
7:15 PM 80.1 °F 81.1 °F 61.3 °F 53% 30.00 in 10.0 mi SW 11.5 mph - N/A   Overcast
7:35 PM 80.1 °F 81.1 °F 61.5 °F 53% 30.00 in 10.0 mi SW 11.5 mph - N/A   Overcast
7:36 PM 80.1 °F 81.1 °F 61.3 °F 53% 30.00 in 10.0 mi SW 12.7 mph 18.4 mph N/A   Overcast
7:59 PM 79.7 °F - 61.3 °F 53% 30.00 in 10.0 mi SW 9.2 mph - N/A   Overcast
8:17 PM 78.8 °F - 61.7 °F 56% 30.00 in 10.0 mi SW 9.2 mph - N/A   Mostly Cloudy
8:35 PM 78.4 °F - 62.2 °F 57% 30.00 in 10.0 mi SW 5.8 mph - N/A   Mostly Cloudy
8:36 PM 78.3 °F - 62.2 °F 58% 30.00 in 10.0 mi SW 5.8 mph - N/A   Mostly Cloudy
8:56 PM 77.0 °F - 64.9 °F 66% 30.01 in 10.0 mi West 6.9 mph - N/A Rain Rain
9:15 PM 72.5 °F - 68.0 °F 86% 30.01 in 5.0 mi Calm Calm - N/A Rain Light Rain
9:38 PM 73.4 °F - 68.7 °F 85% 30.01 in 10.0 mi SW 5.8 mph - N/A   Overcast
9:56 PM 72.3 °F - 69.6 °F 91% 30.01 in 10.0 mi SW 9.2 mph - N/A   Mostly Cloudy
10:15 PM 72.1 °F - 69.4 °F 91% 30.00 in 10.0 mi SW 8.1 mph - N/A   Scattered Clouds
10:35 PM 71.6 °F - 69.8 °F 94% 30.00 in 10.0 mi SW 6.9 mph - N/A   Scattered Clouds
10:36 PM 71.6 °F - 69.8 °F 94% 30.01 in 10.0 mi SW 5.8 mph - N/A   Scattered Clouds
10:58 PM 71.6 °F - 69.8 °F 94% 30.01 in 10.0 mi SW 6.9 mph - N/A   Clear
11:17 PM 71.8 °F - 69.8 °F 93% 30.02 in 10.0 mi WSW 8.1 mph - N/A   Scattered Clouds